Preview of NWS' New Version of Forecast
This preview is not operational and should not be used for support decisions.

Regional Weather Roundup (RWR)

Issued by National Weather Service (NWS)

                            
000
ASUS43 KDTX 180801
RWRMI 
MICHIGAN HOURLY REGIONAL WEATHER ROUNDUP
NATIONAL WEATHER SERVICE DETROIT/PONTIAC MI
300 AM EST MON FEB 18 2019

NOTE: "FAIR" INDICATES FEW OR NO CLOUDS BELOW 12,000 FEET WITH NO
SIGNIFICANT WEATHER AND/OR OBSTRUCTION TO VISIBILITY.

MIZ047>049-052>055-059>063-066>070-074>076-081>083-180900-
SOUTHEAST LOWER MICHIGAN
  
CITY           SKY/WX    TMP DP  RH WIND       PRES   REMARKS
ADRIAN         LGT SNOW  21  17  84 N7        29.94R FOG     WCI  12  
ALMA           LGT SNOW  18  15  86 N7        30.00R WCI   9          
ANN ARBOR      LGT SNOW  21  17  84 NW8       29.92R FOG     WCI  11  
BAD AXE        FLURRIES  22  18  81 N7        29.94R WCI  14          
CARO           LGT SNOW  20  17  88 N5        29.95R WCI  14          
DETROIT CITY   LGT SNOW  21  17  84 N7        29.93R FOG     WCI  12  
DETROIT        LGT SNOW  22  17  81 N6        29.93R WCI  14          
FLINT          FLURRIES  20  14  77 NE9       29.94R WCI   9          
GROSSE ILE     CLOUDY    23  19  84 N10       29.92R WCI  12          
HILLSDALE      FLURRIES  21  16  83 N7        29.91R WCI  12          
HOWELL         LGT SNOW  20  17  86 N6        29.93R WCI  13          

CITY           SKY/WX    TMP DP  RH WIND       PRES   REMARKS
JACKSON        LGT SNOW  20  17  88 NW3       29.93R FOG              
LAMBERTVILLE   FLURRIES  24  21  87 N5        29.93R WCI  18          
LANSING        LGT SNOW  19  16  88 N8        29.97R WCI   9          
LAPEER         CLOUDY    20  12  73 N5        29.93R WCI  13          
MASON          LGT SNOW  21  18  89 N6        29.95R WCI  13          
MONROE         CLOUDY    23  22  96 N6        29.92R WCI  16          
PONTIAC        LGT SNOW  19  15  84 N7        29.90R FOG     WCI  10  
PORT HOPE        N/A     23  16  74 NE18      29.95R WCI   9          
PORT HURON     LGT SNOW  19  16  86 N5        29.92R WCI  13          
TRI CITIES     LGT SNOW  19  15  84 N14       29.98R FOG     WCI   6  
MIDLAND        LGT SNOW  19  15  82 NW7       29.99R WCI  10          
TROY           FLURRIES  21  16  79 N6        29.94R WCI  14          
SAGINAW HB     LGT SNOW  21  18  86 N12         N/A  WCI   9          
$$
MIZ043>046-050>051-056>058-064>065-071>073-077>080-180900-
SOUTHWEST LOWER MICHIGAN
  
CITY           SKY/WX    TMP DP  RH WIND       PRES   REMARKS
BATTLE CREEK   LGT SNOW  21  17  84 N7        29.96R FOG     WCI  12  
BENTON HARBOR  LGT SNOW  22  18  85 VRB3      30.00R FOG              
BIG RAPIDS     MOCLDY    16  12  84 N3        30.00R                  
COLDWATER      LGT SNOW  22  20  92 CALM      29.95R                  
FREMONT        FLURRIES  19  14  78 N7        30.03R WCI  10          
HOLLAND        FLURRIES  21  16  81 N5        30.02R WCI  15          
GRAND RAPIDS   LGT SNOW  19  14  81 N10       29.99R WCI   7          
IONIA          MOCLDY    19  14  81 N9        29.97R WCI   7          
KALAMAZOO      CLOUDY    21  17  84 N6        29.98R FOG     WCI  13  
LUDINGTON      FAIR      18  11  76 NE3       30.06R                  
MARSHALL       LGT SNOW  21  21 100 CALM      29.95R                  
MOUNT PLEASANT FLURRIES  19  12  75 N8        30.00R WCI   8          
MUSKEGON       LGT SNOW  21  14  74 N8        30.04R WCI  11          
SOUTH HAVEN    LGT SNOW  22  19  88 CALM      30.01R                  
$$
MIZ016>042-180900-
NORTHERN LOWER MICHIGAN
  
CITY           SKY/WX    TMP DP  RH WIND       PRES   REMARKS
ALPENA         MOCLDY    16   7  67 NE13      30.04R WCI   2          
BEAVER ISLAND  FAIR      13   6  72 NE6       30.11R WCI   4          
BELLAIRE       MOCLDY    14   7  73 N3        30.08R                  
CADILLAC       CLOUDY    14   7  75 N6        29.98R WCI   5          
CHARLEVOIX     FAIR      15   8  73 NE7       30.11R WCI   5          
FRANKFORT      FAIR      18  10  70 CALM      30.08R                  
GAYLORD        CLOUDY    10   6  84 VRB3      30.00R                  
HARBOR SPRINGS FAIR      15   7  71 NE9       30.07R WCI   3          
HOUGHTON LAKE  CLOUDY    14   8  77 N6        30.00R WCI   5          
MANISTEE       CLOUDY    17  10  74 NE9       30.07R WCI   6          
OSCODA         CLOUDY    21  13  73 NE13G22   29.99S WCI   8          
PELLSTON       FAIR       3  -1  83 N6        30.09R WCI  -8          
ROGERS CITY    CLOUDY    17  10  72 NE12      30.08R WCI   5          
TRAVERSE CITY  MOCLDY    17   9  70 NE7       30.06R WCI   8          
$$
MIZ007>008-015-180900-
EASTERN UPPER MICHIGAN
  
CITY           SKY/WX    TMP DP  RH WIND       PRES   REMARKS
KINROSS        FAIR       8   2  76 NE9       30.11R WCI  -5          
MACKINAC ISLAN MOCLDY    13   6  73 NE8G18    30.09R WCI   2          
NEWBERRY       FAIR       5   2  86 MISG      30.11S                  
S. S. MARIE    FAIR      11   2  67 NE9       30.12R WCI  -2          
MUNISING         N/A     19  13  77 NE10      30.14R WCI   7          
$$
MIZ004>006-011>014-085-180900-
CENTRAL UPPER MICHIGAN
  
CITY           SKY/WX    TMP DP  RH WIND       PRES   REMARKS
MANISTIQUE     MOCLDY    10   2  70 N7        30.12R WCI   0          
ESCANABA       FAIR      14  10  84 NW6       30.14R WCI   5          
MENOMINEE      CLOUDY    14  12  92 NW8       30.14R WCI   3          
$$
MIZ001>003-009>011-084-180900-
WESTERN UPPER MICHIGAN
  
CITY           SKY/WX    TMP DP  RH WIND       PRES   REMARKS
IRON MOUNTAIN  FAIR       8   4  83 NW8       30.11R WCI  -4          
HOUGHTON       FAIR       5  -3  69 NE9       30.20R WCI  -9          
COPPER HARBOR    N/A     12   4  70 NE16      30.24R WCI  -5          
IRONWOOD       FLURRIES   4   1  88 CALM      30.23R                  
$$

ABBREVIATIONS USED IN REMARKS
   TC - TEMPERATURE IN CELSIUS
  WCI - WIND CHILL INDEX
   HX - HEAT INDEX
  VSB - VISIBILITY